Terug naar catalogus

GAOFEN 3 02

ActiefWetenschapSSO
NORAD 49495·PAYLOAD·🇨🇳 China

Gelanceerd Nov 22, 2021 vanaf Jiuquan Satellite Launch Center

Loading…

Volgende Passages (komende 24 uur)

TLE

VersSource: Space-Track

Epoch: Sep 14, 2026, 23:06 UTC

1 49495U 21109A   26257.96283051  .00000005  00000-0  14849-4 0  9995
2 49495  98.4122 264.7979 0003971  79.5712 280.5925 14.42216786253253

Volg GAOFEN 3 02 in realtime met AllMySat

Download on the App Store